Location: Beuvrequen
(50.8014°N, 1.6652°E)
Time: 03:45:38
(UTC+00:00)

CZ-4C R/B - Pass Details

Date: 16 October 2021
Orbit: 403 x 482 km, 97.7° (Epoch: 05 December)

Event Time Altitude Azimuth Distance (km) Brightness Sun altitude
Rises 18:48:32 0° 8° (N) 2,527 6.7 -18.1°
Reaches altitude 10° 18:50:41 10° 1° (N) 1,633 5.8 -18.4°
Maximum altitude 18:54:01 42° 290° (WNW) 671 4.2 -18.9°
Drops below altitude 10° 18:57:13 10° 219° (SW) 1,578 6.0 -19.4°
Sets 18:59:16 0° 212° (SSW) 2,429 6.9 -19.8°
